Simultaneous Nadir Overpasses (SNOs) Predictions

Prediction of SNOs between AQUA and METOP-B Satellite Orbit:

Table of predicted SNOs for the next 14.0 days since TLE Epoch: 4/26/2019
Index Date (AQUA) Time (AQUA) Lat,Lon (AQUA) SZA (AQUA ) Date (METOP-B) Time (METOP-B) Lat,Lon (METOP-B) SZA (METOP-B ) Distance(km) Time Diff (sec)
1 04/27/2019 14:04:38 73.83, -36.82 59.95 04/27/2019 14:03:45 73.86, -36.81 59.99 3.78 53
2 04/27/2019 14:54:05 -73.93, 130.60 119.96 04/27/2019 14:54:26 -73.90, 130.60 119.99 3.17 21
3 04/27/2019 15:43:45 74.60, -63.33 60.75 04/27/2019 15:44:50 74.63, -60.20 60.69 92.45 65
4 04/30/2019 09:38:52 73.85, 29.56 59.09 04/30/2019 09:38:08 73.83, 29.52 59.07 3.10 44
5 04/30/2019 10:28:18 -73.90,-162.90 120.87 04/30/2019 10:28:48 -73.92,-162.93 120.85 2.50 30
6 05/03/2019 05:13:06 73.83, 96.04 58.22 05/03/2019 05:12:31 73.84, 95.96 58.24 2.75 35
7 05/03/2019 06:02:33 -73.93, -96.53 121.69 05/03/2019 06:03:11 -73.94, -96.48 121.68 2.12 38
8 05/06/2019 00:47:21 73.87, 162.40 57.45 05/06/2019 00:46:54 73.86, 162.40 57.44 1.39 27
9 05/06/2019 01:36:47 -73.92, -30.06 122.52 05/06/2019 01:37:35 -73.91, -30.14 122.53 2.57 48
10 05/08/2019 19:31:56 -73.33, 62.35 123.89 05/08/2019 19:30:48 -73.31, 60.19 123.85 68.84 68
11 05/08/2019 20:21:34 73.86,-131.15 56.66 05/08/2019 20:21:16 73.87,-131.16 56.67 1.19 18
12 05/08/2019 21:11:01 -73.96, 36.29 123.26 05/08/2019 21:11:57 -73.93, 36.31 123.29 2.69 56




NCC Satellite Simultaneous Nadir Overpasses (SNOs) Prediction Service
